[[{"header":{"parameterUnit":"m.s-1","parameterCategory":1,"la1":30.2991,"la2":30.254,"lo1":-89.0895,"lo2":-89.0444,"dy":0.0017,"dx":0.0017,"nx":28,"ny":28,"refTime":"2024-06-15T21:00:00:Z","depth":0,"parameterNumber":2,"parameterNumberName":"U-component_of_WINDS"},"data":[0,0,0,0,0,0,0,0,0,0,0,0,0,0,0,0,0,0,0,0,0,0,0,0,0,0,0,0,0,0,0,0,0,0,0,0,0,0,0,0,0,0,0,0,0,0,0,0,0,0,0,0,0,0,0,0,0,0,-3.8032,-3.8032,0,-3.8078,-3.8078,-3.8079,-3.806,-3.8059,-3.8057,-3.8056,-3.8104,-3.8106,-3.8108,0,0,0,0,0,0,0,0,0,0,0,0,0,-3.7929,-3.7931,-3.8032,-3.8033,-3.8033,-3.8078,-3.8078,-3.8079,-3.806,-3.8058,-3.8057,-3.8056,-3.8103,-3.8105,-3.8108,0,0,0,0,0,0,0,0,0,0,0,0,0,-3.7974,-3.7932,-3.8032,-3.8029,-3.8029,-3.8078,-3.8078,-3.8079,-3.806,-3.8058,-3.8057,-3.8055,-3.8102,-3.8105,-3.8109,-3.8163,0,0,-3.8119,-3.8121,0,0,0,0,0,0,0,0,-3.7972,-3.7978,-3.8029,-3.8029,-3.803,-3.8061,-3.8059,-3.8107,-3.8061,-3.8048,-3.8056,-3.8054,-3.8091,-3.8095,-3.8107,-3.8165,-3.8167,-3.8119,-3.8121,-3.8123,-3.8124,0,0,0,0,0,0,0,-3.7969,-3.7976,-3.805,-3.803,-3.803,-3.8026,-3.803,-3.8068,-3.8078,-3.8049,-3.8048,-3.8054,-3.8091,-3.8104,-3.8108,-3.8168,-3.8119,-3.8122,-3.8124,-3.8126,-3.8272,-3.8273,0,0,0,0,0,0,-3.7965,-3.7973,-3.8049,-3.8051,-3.7996,-3.8029,-3.8034,-3.8053,-3.8078,-3.808,-3.8055,-3.8053,-3.8099,-3.8104,-3.811,-3.8174,-3.8123,-3.8126,-3.8128,-3.827,-3.8272,-3.8274,0,0,0,0,0,0,-3.7963,-3.7972,-3.8047,-3.8012,-3.8021,-3.8032,-3.8054,-3.8055,-3.8068,-3.8082,-3.8084,-3.8067,-3.8098,-3.8105,-3.815,-3.8175,-3.8128,-3.8131,-3.8268,-3.8271,-3.8273,-3.8302,0,0,0,0,0,0,-3.796,-3.7971,-3.7992,-3.8013,-3.8023,-3.8085,-3.8055,-3.8057,-3.8074,-3.8071,-3.8093,-3.8096,-3.8097,-3.8145,-3.8153,-3.8179,-3.8133,-3.8265,-3.8269,-3.8272,-3.8299,-3.8306,-3.8311,0,0,0,0,0,-3.7957,-3.7998,-3.7993,-3.8002,-3.8049,-3.8087,-3.8093,-3.8093,-3.8076,-3.8096,-3.8106,-3.8095,-3.8172,-3.8149,-3.8159,-3.8186,-3.8264,-3.8268,-3.8272,-3.8296,-3.8304,-3.8311,0,0,0,0,0,0,-3.798,-3.8001,-3.7995,-3.8045,-3.8064,-3.8083,-3.8109,-3.8102,-3.8127,-3.8123,-3.8124,-3.8129,-3.8175,-3.8185,-3.816,-3.824,-3.8215,-3.8221,-3.823,-3.8238,-3.8244,-3.8239,-3.8136,0,0,0,0,0,-3.7991,-3.802,-3.8037,-3.8079,-3.8089,-3.8098,-3.8114,-3.8113,-3.8134,-3.8142,-3.8154,-3.8175,-3.8203,-3.8222,-3.8249,-3.8302,-3.8306,-3.8325,-3.8332,-3.8337,-3.8341,-3.8369,-3.8377,-3.8288,-3.8288,-3.8288,0,0,-3.8013,-3.8028,-3.8047,-3.8084,-3.8099,-3.8129,-3.8105,-3.8137,-3.8159,-3.8147,-3.8189,-3.8199,-3.8222,-3.8271,-3.8293,-3.8281,-3.8367,-3.8342,-3.8346,-3.8347,-3.8374,-3.8383,-3.839,-3.829,-3.829,-3.8289,0,0,-3.8069,-3.8084,-3.812,-3.8136,-3.8159,-3.8165,-3.8174,-3.8195,-3.8201,-3.8244,-3.8235,-3.8262,-3.8311,-3.8327,-3.8342,-3.8406,-3.8397,-3.8416,-3.8447,-3.8474,-3.8481,-3.8487,-3.8508,-3.8516,-3.8421,-3.8421,-3.8421,0,-3.8094,-3.8138,-3.814,-3.8173,-3.819,-3.8181,-3.8217,-3.8233,-3.8264,-3.8275,-3.8262,-3.8324,-3.8339,-3.839,-3.8406,-3.8419,-3.8429,-3.8411,-3.848,-3.8486,-3.8492,-3.8512,-3.852,-3.8423,-3.8422,-3.8422,-3.8422,0,-3.8167,-3.8198,-3.8225,-3.8255,-3.8275,-3.831,-3.8317,-3.8337,-3.8336,-3.8343,-3.8387,-3.8404,-3.8435,-3.8448,-3.8446,-3.85,-3.8491,-3.848,-3.8454,-3.8502,-3.8521,-3.8529,-3.8425,-3.8425,-3.8424,-3.8424,0,0,-3.8236,-3.8267,-3.8276,-3.829,-3.8316,-3.834,-3.8375,-3.8405,-3.8421,-3.8444,-3.8473,-3.8516,-3.8505,-3.8522,-3.8523,-3.8547,-3.8595,-3.8532,-3.8533,-3.8541,-3.8654,-3.8661,-3.867,-3.8591,-3.8592,-3.8594,-3.8651,0,-3.8292,-3.8352,-3.8355,-3.841,-3.8439,-3.8432,-3.8462,-3.8482,-3.849,-3.8516,-3.8526,-3.8555,-3.854,-3.855,-3.8574,-3.8584,-3.8617,-3.8581,-3.8617,-3.8618,-3.8608,-3.868,-3.8687,-3.8741,-3.8659,-3.866,-3.8661,0,-3.8364,-3.8389,-3.8446,-3.8468,-3.848,-3.8507,-3.8535,-3.856,-3.8582,-3.8587,-3.8607,-3.8604,-3.8641,-3.8617,-3.8667,-3.8642,-3.8657,-3.8665,-3.8667,-3.8668,-3.864,-3.8681,-3.8758,-3.8765,-3.8673,-3.8672,-3.8671,0,-3.8406,-3.8454,-3.8494,-3.8506,-3.8533,-3.8552,-3.8564,-3.8585,-3.8603,-3.8628,-3.8639,-3.8669,-3.8684,-3.8707,-3.8713,-3.8695,-3.8762,-3.8739,-3.8766,-3.8766,-3.8778,-3.8776,-3.8856,-3.8792,-3.8792,-3.8792,-3.8792,0,-3.8467,-3.8502,-3.8513,-3.8537,-3.8577,-3.8581,-3.862,-3.8632,-3.865,-3.8677,-3.8674,-3.8699,-3.8707,-3.8734,-3.8739,-3.8779,-3.8787,-3.8791,-3.8791,-3.879,-3.8789,-3.8798,-3.8793,-3.8794,-3.8794,-3.8793,-3.8793,0,-3.8518,-3.8528,-3.8571,-3.8593,-3.86,-3.8628,-3.8647,-3.8671,-3.868,-3.8714,-3.8722,-3.8736,-3.8768,-3.8777,-3.8815,-3.8819,-3.8865,-3.8863,-3.8857,-3.8856,-3.8882,-3.8878,-3.8968,-3.8979,-3.891,-3.8911,-3.8912,0,-3.8555,-3.8582,-3.8607,-3.8625,-3.8638,-3.8666,-3.8684,-3.8691,-3.871,-3.8738,-3.8758,-3.879,-3.8814,-3.8866,-3.8879,-3.8909,-3.8907,-3.8936,-3.8911,-3.8908,-3.8904,-3.8902,-3.8904,-3.894,-3.894,-3.8941,-3.8942,0,-3.8618,-3.8622,-3.8648,-3.8676,-3.8698,-3.872,-3.8742,-3.8757,-3.8766,-3.8788,-3.882,-3.884,-3.8879,-3.891,-3.894,-3.8953,-3.8949,-3.895,-3.8957,-3.8954,-3.8948,-3.895,-3.8867,-3.8947,-3.8946,-3.8946,-3.8946,-3.8946,-3.8662,-3.8685,-3.8707,-3.8736,-3.8753,-3.8774,-3.8797,-3.8809,-3.8836,-3.8867,-3.887,-3.8905,-3.8928,-3.8967,-3.8982,-3.901,-3.9001,-3.9012,-3.9015,-3.9017,-3.9018,-3.8947,-3.9016,-3.9016,-3.9016,-3.9015,-3.9015,0,-3.8724,-3.8737,-3.8764,-3.8794,-3.8818,-3.8813,-3.8837,-3.8856,-3.8887,-3.8908,-3.8933,-3.897,-3.9,-3.9017,-3.9048,-3.9066,-3.9065,-3.9074,-3.9071,-3.9074,-3.9025,-3.9014,-3.9074,-3.9074,-3.9074,-3.9074,-3.9074,-3.9074,-3.8758,-3.8796,-3.8803,-3.885,-3.8864,-3.8897,-3.8911,-3.893,-3.8947,-3.8988,-3.9013,-3.9024,-3.9044,-3.9076,-3.9104,-3.9108,-3.9119,-3.9128,-3.9131,-3.9084,-3.9078,-3.9072,-3.9062,-3.9131,-3.9131,-3.9178,-3.9178,-3.9178]},{"header":{"parameterUnit":"m.s-1","parameterCategory":1,"la1":30.2991,"la2":30.254,"lo1":-89.0895,"lo2":-89.0444,"dy":0.0017,"dx":0.0017,"nx":28,"ny":28,"refTime":"2024-06-15T21:00:00:Z","depth":0,"parameterNumber":3,"parameterNumberName":"V-component_of_WINDS"},"data":[0,0,0,0,0,0,0,0,0,0,0,0,0,0,0,0,0,0,0,0,0,0,0,0,0,0,0,0,0,0,0,0,0,0,0,0,0,0,0,0,0,0,0,0,0,0,0,0,0,0,0,0,0,0,0,0,0,0,4.1992,4.1992,0,4.2039,4.2039,4.204,4.2086,4.2087,4.2087,4.2088,4.2133,4.2133,4.2134,0,0,0,0,0,0,0,0,0,0,0,0,0,4.1942,4.1942,4.1992,4.1992,4.1993,4.2038,4.2039,4.204,4.2086,4.2087,4.2087,4.2088,4.2132,4.2133,4.2134,0,0,0,0,0,0,0,0,0,0,0,0,0,4.1973,4.1943,4.1992,4.2022,4.2025,4.2038,4.2039,4.204,4.2086,4.2087,4.2088,4.2089,4.2132,4.2133,4.2134,4.2121,0,0,4.2137,4.2137,0,0,0,0,0,0,0,0,4.1971,4.1975,4.2017,4.202,4.2023,4.2058,4.2038,4.2067,4.2086,4.2062,4.2088,4.2089,4.2107,4.211,4.2116,4.2123,4.2125,4.2137,4.2137,4.2138,4.2138,0,0,0,0,0,0,0,4.1969,4.1973,4.201,4.2017,4.2021,4.2032,4.2038,4.2044,4.2079,4.2065,4.2068,4.2073,4.2109,4.2115,4.2118,4.2125,4.2137,4.2138,4.2138,4.2139,4.2126,4.2125,0,0,0,0,0,0,4.1963,4.1971,4.2009,4.2012,4.1999,4.2033,4.2039,4.2045,4.2079,4.2085,4.2072,4.2075,4.2113,4.2117,4.2119,4.2108,4.2138,4.2139,4.2139,4.2127,4.2126,4.2125,0,0,0,0,0,0,4.1961,4.1966,4.2007,4.1992,4.1999,4.2032,4.204,4.2046,4.2053,4.2085,4.2091,4.2073,4.2114,4.2118,4.2121,4.211,4.2139,4.214,4.2128,4.2127,4.2126,4.2084,0,0,0,0,0,0,4.196,4.1965,4.196,4.1992,4.1999,4.2008,4.2039,4.2046,4.2055,4.2059,4.2087,4.2092,4.2115,4.2119,4.2122,4.2112,4.2141,4.2129,4.2127,4.2126,4.2086,4.2081,4.2077,0,0,0,0,0,4.1958,4.1945,4.196,4.1964,4.1994,4.2007,4.2011,4.2038,4.2053,4.2049,4.207,4.2091,4.2111,4.2119,4.2122,4.2113,4.213,4.2128,4.2126,4.2088,4.2082,4.2077,0,0,0,0,0,0,4.191,4.195,4.1966,4.1964,4.1982,4.2015,4.201,4.2031,4.2044,4.2047,4.208,4.2086,4.2085,4.2099,4.2108,4.2103,4.2124,4.2122,4.2094,4.2088,4.2084,4.208,4.2141,0,0,0,0,0,4.1899,4.1907,4.1941,4.1936,4.1944,4.1976,4.1982,4.2002,4.2021,4.2029,4.205,4.2067,4.2078,4.2084,4.2095,4.2089,4.2096,4.2084,4.2079,4.2075,4.2073,4.2073,4.2068,4.2119,4.2119,4.2119,0,0,4.1877,4.19,4.1902,4.1927,4.1943,4.195,4.1981,4.1987,4.1993,4.2029,4.2034,4.205,4.2072,4.2071,4.2071,4.2082,4.2061,4.2072,4.2069,4.207,4.2071,4.2066,4.2062,4.2117,4.2118,4.2118,0,0,4.184,4.1858,4.1856,4.1873,4.1898,4.1919,4.1918,4.1949,4.1962,4.1967,4.1996,4.2002,4.2019,4.2034,4.2044,4.2016,4.2036,4.2018,4.1993,4.1993,4.1989,4.1986,4.1977,4.1973,4.2016,4.2016,4.2016,0,4.1809,4.1821,4.1852,4.1857,4.1868,4.1903,4.1902,4.1916,4.1943,4.1949,4.1962,4.1985,4.2002,4.2006,4.1999,4.2006,4.2007,4.2015,4.1987,4.1984,4.1981,4.1973,4.197,4.2014,4.2014,4.2014,4.2015,0,4.1783,4.1791,4.1787,4.1814,4.1824,4.1825,4.1857,4.1863,4.1883,4.1903,4.1909,4.1931,4.1948,4.195,4.1969,4.1957,4.1964,4.1981,4.2003,4.1974,4.1967,4.1964,4.2011,4.2012,4.2012,4.2013,0,0,4.1716,4.1762,4.176,4.1773,4.1805,4.1811,4.1815,4.1834,4.1839,4.1857,4.1861,4.1876,4.1893,4.1904,4.1924,4.1924,4.1902,4.1942,4.1943,4.1935,4.1893,4.188,4.1876,4.1916,4.1916,4.1915,4.1892,0,4.1685,4.1695,4.1724,4.1725,4.1734,4.1769,4.1773,4.1792,4.1811,4.1822,4.1843,4.1853,4.1874,4.1882,4.1883,4.1904,4.1894,4.1907,4.1921,4.1921,4.1915,4.1872,4.1859,4.1835,4.1889,4.1888,4.1888,0,4.165,4.1668,4.167,4.1703,4.1708,4.1711,4.1731,4.174,4.1764,4.1778,4.1792,4.1815,4.1822,4.1842,4.1852,4.1859,4.1867,4.1879,4.1879,4.1881,4.1903,4.1875,4.1828,4.1825,4.1884,4.1884,4.1885,0,4.1603,4.1627,4.1632,4.1643,4.1681,4.1682,4.1698,4.1722,4.1732,4.175,4.1757,4.1774,4.1784,4.1797,4.1825,4.1837,4.1832,4.1854,4.1845,4.1844,4.1842,4.1842,4.1797,4.1846,4.1846,4.1846,4.1846,0,4.1566,4.1566,4.1612,4.1615,4.1617,4.1651,4.1652,4.1671,4.1692,4.17,4.1731,4.1737,4.1773,4.1784,4.1806,4.1812,4.1815,4.1827,4.1833,4.1825,4.1824,4.1831,4.1833,4.1845,4.1845,4.1845,4.1845,0,4.1513,4.1544,4.1552,4.1588,4.1598,4.1598,4.1629,4.1633,4.1655,4.1665,4.1669,4.1703,4.1718,4.1747,4.1769,4.1784,4.1785,4.1794,4.1777,4.1781,4.177,4.1771,4.1729,4.1726,4.1775,4.1775,4.1774,0,4.1488,4.149,4.1527,4.1535,4.155,4.1562,4.1574,4.1607,4.1617,4.1645,4.1647,4.1664,4.168,4.1701,4.1728,4.1745,4.1756,4.174,4.1759,4.1751,4.1758,4.1758,4.1759,4.1736,4.1735,4.1735,4.1734,0,4.1441,4.1457,4.1472,4.1493,4.1505,4.1523,4.1542,4.1547,4.1585,4.1595,4.1611,4.1623,4.1647,4.1664,4.1686,4.1702,4.1725,4.1728,4.1727,4.1719,4.171,4.1716,4.1767,4.1729,4.173,4.173,4.173,4.173,4.1402,4.1406,4.1434,4.145,4.1469,4.1486,4.1493,4.1517,4.1531,4.1554,4.1573,4.1588,4.1613,4.1645,4.166,4.1672,4.1683,4.1681,4.1681,4.168,4.1677,4.1707,4.1676,4.1676,4.1676,4.1677,4.1677,0,4.1358,4.1378,4.1393,4.142,4.1433,4.1454,4.1477,4.1487,4.15,4.1522,4.1537,4.1557,4.1574,4.1603,4.1622,4.1627,4.1638,4.1631,4.1631,4.1635,4.1666,4.1665,4.1622,4.1622,4.1622,4.1622,4.1622,4.1622,4.1336,4.1345,4.1364,4.1382,4.1402,4.1418,4.1429,4.1446,4.1464,4.1485,4.15,4.1519,4.1544,4.1566,4.1583,4.1591,4.1598,4.1588,4.1599,4.1627,4.1632,4.1637,4.1637,4.1588,4.1588,4.1567,4.1567,4.1567]}]]